Capitol Logistics 2557


KMEM
Memphis International Airport
Memphis, Tennessee, US
KIND
Indianapolis International Airport
Indianapolis, Indiana, US

Activity Log

Date Flight Route Aircraft Duration
11/21/2019 CPX2557 N0474F350 ELVIS4 MEM J29 PXV RACYR5 B744 1h 03m
11/20/2019 CPX2557 CRSON6 HUMMS PXV EMBRR SMUKE2 B763 1h 21m
11/18/2019 CPX2557 CRSON6 HUMMS PXV EMBRR SMUKE2 B744 1h 05m

Route Details

Aircraft Information
Primary: Boeing 747-400BCF
Backup: Boeing 767-300BDSF
Date Restrictions
Between:Nov 16, 2019
Dec 31, 2019
Route Data
Distance: 331nm
Sched. Duration: 0h 51m
Avg. Duration: 1h 09m (+59m)
Times Flown: 3
Recm'd Route: CRSON6 HUMMS PXV EMBRR SMUKE2
Planned Altitude: 31,000ft
Origin Wx: KMEM 221954Z 18007KT 10SM SCT035 BKN070 29/19 A3001 RMK AO2 SLP159 T02890189
Dest. Wx: KIND 221954Z 19014KT 10SM FEW040 BKN060 26/17 A3004 RMK AO2 SLP167 T02610172
Notes: SEASONAL FLIGHT | FEDEX SURGE OPS CONTRACT

Financial History
Total Freight: 527,411lbs
Average Load: 175,804lbs/flt
Fuel Used: 56,843lbs
Avg. Fuel Used: 18,948lbs/flt
Fuel Expense: $59,685
Avg. Fuel Expense: $19,895
Avg. Fuel Cost: $1.05/lbs
Total Gross Income: $996,807
Pilot Pay: $617
Total Expenses: $107,811
Total Revenue: $828,408
Average Revenue: $332,268.93